Tiempo atmosférico en la estación meteorológica de La Pinilla, estación de esquí, Segovia (1860 m.)



Fecha
DESCASC
Temp. máxima en grados centígrados (hora)
DESCASC
Temp. mínima en grados centígrados (hora)
DESCASC
Temp. media en grados centígrados
DESCASC
Racha de viento máxima en m/sg (hora)
DESCASC
Velocidad máxima media en intervalos de 10 minutos(hora)
DESCASC
Precipitaciones diarias en mm
DESCASC
Precipitaciones de 00:00 a 06:00 en mm
DESCASC
Precipitaciones de 06:00 a 12:00 en mm
DESCASC
Precipitaciones de 12:00 a 18:00 en mm
DESCASC
Precipitaciones de 18:00 a 24:00 en mm
DESCASC
22-04-2018 14.4 (13:40) 5.2 (07:00) 9.8 19.17 (01:10) 12.78 (00:50) -- -- -- -- --
21-04-2018 10.8 (19:00) 4.6 (03:10) 7.7 23.89 (01:10) 17.5 (10:50) -- -- -- -- --
20-04-2018 11.4 (17:20) 5.2 (06:20) 8.3 25.83 (05:20) 11.67 (14:00) -- -- -- -- --
19-04-2018 13.5 (17:40) 7 (00:00) 10.3 20.56 (23:20) 13.89 (02:50) -- -- -- -- --
18-04-2018 11.1 (15:50) 7.1 (00:00) 9.1 15.83 (10:20) 12.22 (09:40) -- -- -- -- --
17-04-2018 13.1 (13:30) 2 (00:00) 7.6 8.61 (23:59) 7.22 (23:59) -- -- -- -- --
16-04-2018 4.7 (19:00) -1.3 (-00:0) 1.7 15.28 (05:40) 5.28 (05:40) -- -- -- -- --
15-04-2018 7.3 (17:20) 1 (00:00) 4.2 14.44 (14:50) 6.67 (16:50) -- -- -- -- --
14-04-2018 8.8 (15:50) -1.4 (-00:0) 3.7 8.61 (23:00) 3.61 (22:20) -- -- -- -- --
13-04-2018 7.7 (13:30) -2.1 (-00:0) 2.8 10.83 (00:50) 6.67 (00:50) -- -- -- -- --
12-04-2018 1.9 (15:00) -1.8 (-00:0) 0.1 25 (21:50) 11.39 (14:00) -- -- -- -- --
11-04-2018 -0.2 (21:50) -4.7 (-00:0) -2.4 22.5 (18:10) 9.72 (18:10) -- -- -- -- --
10-04-2018 1.1 (17:20) -3.6 (-00:0) -1.2 19.44 (05:00) 13.06 (10:00) -- -- -- -- --
09-04-2018 0.8 (01:00) -4 (-00:0) -1.6 20 (05:30) 14.17 (04:40) -- -- -- -- --
08-04-2018 2.1 (18:40) -1 (-00:0) 0.5 12.78 (15:30) 6.67 (23:00) -- -- -- -- --
07-04-2018 -- (--) -- (--) -- -- (--) -- (--) -- -- -- -- --
06-04-2018 8.6 (15:40) 5.1 (00:00) 6.9 27.78 (16:50) 13.06 (05:00) -- -- -- -- --
05-04-2018 11.6 (14:30) -1.6 (-00:0) 5 24.44 (22:30) 14.17 (21:00) -- -- -- -- --
04-04-2018 4 (15:30) -0.2 (00:00) 1.9 20.56 (04:20) 7.78 (00:10) -- -- -- -- --
03-04-2018 4.1 (16:30) 0.9 (00:00) 2.5 26.11 (18:30) 15.83 (17:50) -- -- -- -- --
02-04-2018 7.1 (17:20) 3 (00:00) 5 26.11 (00:20) 15 (03:30) -- -- -- -- --
01-04-2018 7.8 (11:50) -2.1 (-00:0) 2.9 22.5 (23:30) 12.5 (23:59) -- -- -- -- --
31-03-2018 -0.7 (18:10) -4.7 (-00:0) -2.7 25.56 (02:50) 7.78 (02:50) -- -- -- -- --
30-03-2018 1 (16:30) -5.9 (-00:0) -2.5 27.22 (23:00) 10.83 (02:50) -- -- -- -- --
29-03-2018 4.5 (16:30) -1.6 (-00:0) 1.4 19.17 (23:59) 9.17 (23:59) -- -- -- -- --
28-03-2018 9.6 (14:30) 2.1 (00:00) 5.9 16.67 (15:20) 5.83 (19:00) -- -- -- -- --
27-03-2018 7 (18:40) -1.1 (-00:0) 2.9 11.67 (23:30) 5 (23:40) -- -- -- -- --

Gráficas

Temp. máximas Temp. mínimas Temp. medias Precipitaciones Rachas de viento máximas Velocidades máximas media en intervalos de 10 minutos

Datos horarios

Fecha y hora oficial Temperatura (ºC) Velocidad del viento (km/h) Dirección del viento Racha (km/h) Dirección de racha Precipitación (mm) Presión (hPa) Tendencia (hPa) Humedad (%)
2018-04-25 23:00:00 12.1 21 Sudeste 34 Sur -- -- -- 52
2018-04-25 22:00:00 11.1 12 Sudeste 19 Sudeste -- -- -- 58
2018-04-25 21:00:00 9.6 12 Sudeste 17 Sudeste -- -- -- 62
2018-04-25 20:00:00 12.7 7 Este 41 Norte -- -- -- 56
2018-04-25 19:00:00 14.9 30 Norte 48 Norte -- -- -- 56
2018-04-25 18:00:00 18 13 Norte 36 Norte -- -- -- 29
2018-04-25 17:00:00 18 10 Nordeste 48 Nordeste -- -- -- 26
2018-04-25 16:00:00 16.6 25 Norte 42 Norte -- -- -- 31
2018-04-25 15:00:00 16.8 18 Norte 42 Norte -- -- -- 34
2018-04-25 14:00:00 16.5 14 Norte 32 Norte -- -- -- 34
2018-04-25 13:00:00 16.8 7 Nordeste 24 Norte -- -- -- 46
2018-04-25 12:00:00 16.8 3 Sudeste 17 Nordeste -- -- -- 44
2018-04-25 11:00:00 13.3 9 Sur 17 Oeste -- -- -- 50
2018-04-25 10:00:00 12.3 10 Sur 25 Sudeste -- -- -- 51
2018-04-25 09:00:00 10.4 21 Sudeste 32 Sudeste -- -- -- 57
2018-04-25 08:00:00 9.4 24 Sudeste 30 Sudeste -- -- -- 58
2018-04-25 07:00:00 9.3 10 Sur 17 Sur -- -- -- 56
2018-04-25 06:00:00 9 12 Sur 17 Sur -- -- -- 51
2018-04-25 05:00:00 9 12 Sur 18 Sur -- -- -- 55
2018-04-25 04:00:00 9.7 12 Sur 18 Sur -- -- -- 54
2018-04-25 03:00:00 9.6 10 Sur 23 Sur -- -- -- 53
2018-04-25 02:00:00 8.8 17 Sur 21 Sur -- -- -- 56
2018-04-25 01:00:00 10.3 12 Sur 21 Sur -- -- -- 48
2018-04-25 00:00:00 9.6 12 Sur 21 Sudeste -- -- -- 50
2018-04-24 23:00:00 9.5 14 Sur 19 Sur -- -- -- 49
2018-04-24 22:00:00 8.8 16 Sur 23 Sur -- -- -- 54
2018-04-24 21:00:00 9.6 21 Sur 35 Sur -- -- -- 57
2018-04-24 20:00:00 11.4 23 Sudeste 39 Sudeste -- -- -- 63
2018-04-24 19:00:00 10.3 17 Sudoeste 24 Sur -- -- -- 57
2018-04-24 18:00:00 12.8 9 Sur 16 Sudoeste -- -- -- 49
2018-04-24 17:00:00 13.5 8 Sur 14 Sur -- -- -- 50
2018-04-24 16:00:00 16.7 7 Sudeste 17 Sur -- -- -- 32
2018-04-24 15:00:00 18.6 7 Sur 26 Sudoeste -- -- -- 28
2018-04-24 14:00:00 17 8 Sur 20 Sur -- -- -- 37
2018-04-24 13:00:00 15 10 Sur 17 Sur -- -- -- 42
2018-04-24 12:00:00 14.9 11 Sur 24 Sur -- -- -- 37
2018-04-24 11:00:00 14.4 9 Sur 34 Sur -- -- -- 40
2018-04-24 10:00:00 13.3 17 Sur 35 Sur -- -- -- 42
2018-04-24 09:00:00 12.2 15 Sur 35 Sur -- -- -- 45
2018-04-24 08:00:00 11.6 18 Sur 39 Sur -- -- -- 48
2018-04-24 07:00:00 11.8 23 Sur 45 Sur -- -- -- 50
2018-04-24 06:00:00 11.6 32 Sur 41 Sudeste -- -- -- 48
2018-04-24 05:00:00 11.3 33 Sudeste 40 Sur -- -- -- 52
2018-04-24 04:00:00 11.7 31 Sur 44 Sudeste -- -- -- 50
2018-04-24 03:00:00 10.9 26 Sudeste 34 Sudeste -- -- -- 56
2018-04-24 02:00:00 8.7 24 Sudeste 29 Sudeste -- -- -- 63
2018-04-24 01:00:00 8.8 24 Sudeste 28 Sudeste -- -- -- 62
2018-04-24 00:00:00 8.9 19 Sudeste 24 Sudeste -- -- -- 58
2018-04-23 23:00:00 9.4 13 Sur 27 Norte -- -- -- 56
2018-04-23 22:00:00 12.1 5 Sudeste 41 Sudeste -- -- -- 45
2018-04-23 21:00:00 12.9 13 Sur 44 Sudeste -- -- -- 43
2018-04-23 20:00:00 11.8 24 Sur 41 Sur -- -- -- 54
2018-04-23 19:00:00 12.9 11 Sur 24 Sudeste -- -- -- 52
2018-04-23 18:00:00 12.8 15 Sur 32 Sur -- -- -- 53
2018-04-23 17:00:00 12.8 19 Sur 27 Sur -- -- -- 54
2018-04-23 16:00:00 11.6 15 Sur 23 Sur -- -- -- 62
2018-04-23 15:00:00 13.1 5 Oeste 24 Nordeste -- -- -- 54
2018-04-23 14:00:00 14.5 13 Nordeste 26 Norte -- -- -- 51
2018-04-23 13:00:00 15 6 Noroeste 26 Norte -- -- -- 49
2018-04-23 12:00:00 10.6 14 Sur 40 Sur -- -- -- 54
2018-04-23 11:00:00 9.9 34 Sur 49 Sur -- -- -- 60
2018-04-23 10:00:00 9 31 Sur 49 Sudeste -- -- -- 62
2018-04-23 09:00:00 9.5 31 Sur 47 Sudeste -- -- -- 58
2018-04-23 08:00:00 10.2 31 Sur 45 Sur -- -- -- 46
2018-04-23 07:00:00 10.1 36 Sur 50 Sur -- -- -- 52
2018-04-23 06:00:00 7.4 43 Sur 66 Sudeste -- -- -- 63
2018-04-23 05:00:00 8.6 48 Sur 58 Sur -- -- -- 74
2018-04-23 04:00:00 8.1 44 Sur 61 Sur -- -- -- 76
2018-04-23 03:00:00 9.2 39 Sur 56 Sur -- -- -- 69
2018-04-23 02:00:00 9.8 35 Sur 58 Sudeste -- -- -- 64
2018-04-23 01:00:00 10.2 30 Sur 57 Sudeste -- -- -- 63
2018-04-23 00:00:00 10.2 32 Sur 46 Sur -- -- -- 63
2018-04-22 23:00:00 10.3 35 Sur 45 Sur -- -- -- 63
2018-04-22 22:00:00 9 25 Sudeste 32 Sur -- -- -- 64
2018-04-22 21:00:00 9.5 24 Sur 30 Sur -- -- -- 64
2018-04-22 20:00:00 8.9 10 Sur 24 Sudoeste -- -- -- 65
2018-04-22 19:00:00 10.3 9 Sur 33 Sudeste -- -- -- 65
2018-04-22 18:00:00 12.5 19 Sudeste 40 Sur -- -- -- 57
2018-04-22 17:00:00 12.8 8 Norte 45 Sudoeste -- -- -- 57
2018-04-22 16:00:00 11.4 13 Oeste 44 Oeste -- -- -- 63
2018-04-22 15:00:00 13.9 7 Este 34 Sur -- -- -- 50
2018-04-22 14:00:00 12.7 6 Norte 20 Norte -- -- -- 63
2018-04-22 13:00:00 11.5 3 Sur 13 Sur -- -- -- 67
2018-04-22 12:00:00 11.4 6 Sur 13 Sudeste -- -- -- 61
2018-04-22 11:00:00 9.1 4 Sudeste 13 Sur -- -- -- 74
2018-04-22 10:00:00 10.5 2 Sudeste 15 Sudeste -- -- -- 65
2018-04-22 09:00:00 6.7 6 Sur 14 Sudeste -- -- -- 77
2018-04-22 08:00:00 5.8 6 Sudeste 16 Sur -- -- -- 83
2018-04-22 07:00:00 5.3 11 Sudoeste 17 Sudoeste -- -- -- 87
2018-04-22 06:00:00 7.1 7 Sudoeste 23 Sudoeste -- -- -- 75
2018-04-22 05:00:00 8.1 9 Sudoeste 21 Sur -- -- -- 68
2018-04-22 04:00:00 7.7 20 Sur 49 Sur -- -- -- 72
2018-04-22 03:00:00 7.9 30 Sur 54 Sur -- -- -- 69
2018-04-22 02:00:00 7.6 41 Sur 69 Sur -- -- -- 73
2018-04-22 01:00:00 7.4 46 Sur 67 Sur -- -- -- 75
2018-04-22 00:00:00 7.9 42 Sur 53 Sur -- -- -- 71
2018-04-21 23:00:00 8.5 33 Sur 46 Sur -- -- -- 68
2018-04-21 22:00:00 7.7 29 Sur 47 Sur -- -- -- 68
2018-04-21 21:00:00 8.2 40 Sur 62 Sur -- -- -- 66
2018-04-21 20:00:00 8.6 48 Sur 68 Sur -- -- -- 62
2018-04-21 19:00:00 10.7 42 Sur 62 Sur -- -- -- 42
2018-04-21 18:00:00 9.2 39 Sur 64 Sur -- -- -- 54
2018-04-21 17:00:00 8.3 45 Sur 78 Sur -- -- -- 60
2018-04-21 16:00:00 9.3 35 Sur 46 Sur -- -- -- 44
2018-04-21 15:00:00 9.9 13 Sur 42 Sudeste -- -- -- 46
2018-04-21 14:00:00 9 27 Sur 68 Sur -- -- -- 38
2018-04-21 13:00:00 7.7 48 Sur 75 Sudeste -- -- -- 54
2018-04-21 12:00:00 6.8 54 Sur 82 Sur -- -- -- 58
2018-04-21 11:00:00 5.8 63 Sur 83 Sur -- -- -- 72
2018-04-21 10:00:00 7 57 Sur 79 Sur -- -- -- 53
2018-04-21 09:00:00 6.1 60 Sur 77 Sur -- -- -- 59
2018-04-21 08:00:00 8.1 53 Sur 66 Sur -- -- -- 42
2018-04-21 07:00:00 6.3 51 Sur 67 Sur -- -- -- 57
2018-04-21 06:00:00 6.6 49 Sur 68 Sur -- -- -- 55
2018-04-21 05:00:00 5.4 52 Sur 76 Sur -- -- -- 72
2018-04-21 04:00:00 4.9 50 Sur 75 Sur -- -- -- 83
2018-04-21 03:00:00 4.9 49 Sur 72 Sur -- -- -- 85
2018-04-21 02:00:00 5.2 46 Sur 86 Sur -- -- -- 79
2018-04-21 01:00:00 5.7 44 Sur 82 Sudeste -- -- -- 77
2018-04-21 00:00:00 6.6 36 Sur 92 Sudeste -- -- -- 76
2018-04-20 23:00:00 6.8 27 Sur 72 Sudeste -- -- -- 79
2018-04-20 22:00:00 8.4 14 Sudoeste 60 Sudeste -- -- -- 64
2018-04-20 21:00:00 8.8 15 Este 58 Sudeste -- -- -- 61
2018-04-20 20:00:00 10 22 Sur 52 Sur -- -- -- 59
2018-04-20 19:00:00 10.6 17 Norte 45 Oeste -- -- -- 57
2018-04-20 18:00:00 11 15 Sur 54 Sur -- -- -- 56
2018-04-20 17:00:00 10.4 25 Sur 57 Sur -- -- -- 57
2018-04-20 16:00:00 10.4 31 Sur 79 Sur -- -- -- 55
2018-04-20 15:00:00 9.3 40 Sur 79 Sur -- -- -- 57
2018-04-20 14:00:00 8.4 42 Sur 80 Sur -- -- -- 61
2018-04-20 13:00:00 7.8 34 Sur 87 Sur -- -- -- 61
2018-04-20 12:00:00 6.8 38 Sur 69 Sur -- -- -- 71
2018-04-20 11:00:00 6.5 33 Sur 63 Sur -- -- -- 66
2018-04-20 10:00:00 5.3 30 Sur 62 Sur -- -- -- 70
2018-04-20 09:00:00 5.8 27 Sur 67 Sur -- -- -- 67
2018-04-20 08:00:00 5.9 19 Sur 56 Sur -- -- -- 68
2018-04-20 07:00:00 5.9 36 Sur 64 Sur -- -- -- 68
2018-04-20 06:00:00 5.5 30 Sur 93 Sudeste -- -- -- 74
2018-04-20 05:00:00 5.4 29 Sur 88 Sudeste -- -- -- 78
2018-04-20 04:00:00 5.5 40 Sur 59 Sur -- -- -- 80
2018-04-20 03:00:00 7.3 17 Sur 59 Sur -- -- -- 65
2018-04-20 02:00:00 7 17 Sur 66 Oeste -- -- -- 66
2018-04-20 01:00:00 7.2 27 Sudoeste 79 Sur -- -- -- 70
2018-04-20 00:00:00 7.2 31 Sur 74 Sur -- -- -- 76
2018-04-19 23:00:00 8.4 33 Sur 62 Sudeste -- -- -- 72
2018-04-19 22:00:00 8.5 24 Sur 45 Sur -- -- -- 77
2018-04-19 21:00:00 9.5 10 Sur 32 Sur -- -- -- 73
2018-04-19 20:00:00 11.4 17 Sur 35 Sur -- -- -- 58
2018-04-19 19:00:00 12.9 15 Sudoeste 33 Sudeste -- -- -- 42
2018-04-19 18:00:00 13 17 Sur 32 Sudeste -- -- -- 42
2018-04-19 17:00:00 12.7 18 Sur 41 Sur -- -- -- 41
2018-04-19 16:00:00 11.9 21 Sur 39 Sur -- -- -- 44
2018-04-19 15:00:00 11.6 19 Sur 43 Sur -- -- -- 44
2018-04-19 14:00:00 11.1 21 Sur 54 Sur -- -- -- 45
2018-04-19 13:00:00 9.9 36 Sur 58 Sur -- -- -- 47
2018-04-19 12:00:00 9.1 41 Sur 57 Sur -- -- -- 47
2018-04-19 11:00:00 8.4 40 Sur 60 Sur -- -- -- 48
2018-04-19 10:00:00 7.6 44 Sur 68 Sur -- -- -- 55
2018-04-19 09:00:00 7.3 32 Sur 61 Sudoeste -- -- -- 49
2018-04-19 08:00:00 7.7 31 Sur 56 Sur -- -- -- 48
2018-04-19 07:00:00 7.7 35 Sur 68 Sur -- -- -- 49
2018-04-19 06:00:00 7.4 42 Sur 70 Sur -- -- -- 51
2018-04-19 05:00:00 7.2 46 Sur 67 Sur -- -- -- 55
2018-04-19 04:00:00 7.5 42 Sur 60 Sur -- -- -- 55
2018-04-19 03:00:00 7.7 48 Sur 62 Sur -- -- -- 54
2018-04-19 02:00:00 8.1 45 Sur 64 Sur -- -- -- 53
2018-04-19 01:00:00 8.4 40 Sur 57 Sur -- -- -- 54
2018-04-19 00:00:00 9 37 Sur 55 Sudeste -- -- -- 64
2018-04-18 23:00:00 9.2 31 Sur 40 Sur -- -- -- 64
2018-04-18 22:00:00 8.7 26 Sur 34 Sur -- -- -- 65
2018-04-18 21:00:00 8.1 27 Sur 41 Sur -- -- -- 70
2018-04-18 20:00:00 10 32 Sur 42 Sur -- -- -- 65
2018-04-18 19:00:00 9.2 29 Sur 36 Sur -- -- -- 66
2018-04-18 18:00:00 10.3 27 Sur 39 Sur -- -- -- 61
2018-04-18 17:00:00 9.5 31 Sur 47 Sur -- -- -- 64
2018-04-18 16:00:00 10.3 32 Sur 43 Sur -- -- -- 59
2018-04-18 15:00:00 9.9 37 Sur 48 Sur -- -- -- 59
2018-04-18 14:00:00 10 37 Sur 53 Sur -- -- -- 57
2018-04-18 13:00:00 10 39 Sur 54 Sur -- -- -- 59
2018-04-18 12:00:00 9.8 40 Sur 54 Sur -- -- -- 54
2018-04-18 11:00:00 9.2 43 Sur 57 Sur -- -- -- 52
2018-04-18 10:00:00 9.4 40 Sur 51 Sur -- -- -- 45
2018-04-18 09:00:00 8.3 42 Sur 49 Sur -- -- -- 43
2018-04-18 08:00:00 9 34 Sur 43 Sur -- -- -- 39
2018-04-18 07:00:00 8.3 35 Sur 43 Sur -- -- -- 49
2018-04-18 06:00:00 8.8 30 Sur 49 Sur -- -- -- 50
2018-04-18 05:00:00 8.7 37 Sur 51 Sur -- -- -- 52
2018-04-18 04:00:00 8.9 41 Sur 53 Sur -- -- -- 52
2018-04-18 03:00:00 9.6 41 Sur 49 Sur -- -- -- 47
2018-04-18 02:00:00 9.8 37 Sur 46 Sur -- -- -- 50
2018-04-18 01:00:00 9.7 31 Sudeste 39 Sudeste -- -- -- 52
2018-04-18 00:00:00 8.5 26 Sudeste 31 Sudeste -- -- -- 62
2018-04-17 23:00:00 8.8 10 Sur 19 Sudeste -- -- -- 61
2018-04-17 22:00:00 8 11 Sur 19 Sur -- -- -- 62
2018-04-17 21:00:00 7.9 13 Sur 17 Sur -- -- -- 60
2018-04-17 20:00:00 9.5 8 Sur 13 Sur -- -- -- 54
2018-04-17 19:00:00 10.3 6 Sur 14 Sur -- -- -- 52
2018-04-17 18:00:00 11.5 8 Sur 13 Sur -- -- -- 48
2018-04-17 17:00:00 11.8 4 Sudoeste 11 Sur -- -- -- 43
2018-04-17 16:00:00 11.5 5 Sur 15 Sur -- -- -- 38
2018-04-17 15:00:00 11.9 6 Sur 17 Sur -- -- -- 38
2018-04-17 14:00:00 12.1 6 Sur 15 Sudeste -- -- -- 37
2018-04-17 13:00:00 11.8 7 Sur 15 Sur -- -- -- 34
2018-04-17 12:00:00 11 5 Sur 13 Sur -- -- -- 23
2018-04-17 11:00:00 10.4 6 Sudoeste 17 Sudoeste -- -- -- 16
2018-04-17 10:00:00 9.2 9 Sudoeste 19 Sudoeste -- -- -- 17
2018-04-17 09:00:00 6.2 8 Sudoeste 20 Sudoeste -- -- -- 19
2018-04-17 08:00:00 4.9 8 Sudoeste 21 Sudoeste -- -- -- 22
2018-04-17 07:00:00 3 7 Sudoeste 11 Oeste -- -- -- 51
2018-04-17 06:00:00 3.1 8 Sudoeste 17 Oeste -- -- -- 62
2018-04-17 05:00:00 3.2 11 Sudoeste 20 Sudoeste -- -- -- 50
2018-04-17 04:00:00 2.8 12 Sudoeste 18 Sur -- -- -- 77
2018-04-17 03:00:00 3.2 13 Sudoeste 25 Sur -- -- -- 23
2018-04-17 02:00:00 4.1 8 Sudoeste 26 Sudoeste -- -- -- 17
2018-04-17 01:00:00 4 11 Sudoeste 18 Sudoeste -- -- -- 23
2018-04-17 00:00:00 3.1 9 Sudoeste 14 Sudoeste -- -- -- 31
2018-04-16 23:00:00 2.1 14 Sudoeste 22 Sudoeste -- -- -- 51
2018-04-16 22:00:00 2.5 13 Sudoeste 23 Sur -- -- -- 80
2018-04-16 21:00:00 2.1 7 Sudoeste 14 Sudoeste -- -- -- 81
2018-04-16 20:00:00 3.7 7 Sudoeste 16 Sudoeste -- -- -- 91
2018-04-16 19:00:00 4.6 8 Oeste 20 Noroeste -- -- -- 87
2018-04-16 18:00:00 3.3 6 Norte 20 Noroeste -- -- -- 94
2018-04-16 17:00:00 3.6 4 Noroeste 22 Norte -- -- -- 95
2018-04-16 16:00:00 2.2 8 Noroeste 24 Noroeste -- -- -- 98
2018-04-16 15:00:00 1.9 9 Noroeste 32 Noroeste -- -- -- 99
2018-04-16 14:00:00 0.7 10 Noroeste 28 Noroeste -- -- -- 100
2018-04-16 13:00:00 0.2 13 Noroeste 29 Oeste -- -- -- 100
2018-04-16 12:00:00 -0.1 12 Noroeste 31 Noroeste -- -- -- 100
2018-04-16 11:00:00 -0.2 6 Noroeste 32 Noroeste -- -- -- 100
2018-04-16 10:00:00 -0.8 14 Noroeste 36 Oeste -- -- -- --
2018-04-16 09:00:00 -1 14 Noroeste 49 Noroeste -- -- -- --
2018-04-16 08:00:00 -0.7 16 Noroeste 41 Noroeste -- -- -- --
2018-04-16 07:00:00 -0.5 12 Norte 48 Noroeste -- -- -- 100
2018-04-16 06:00:00 -0.4 18 Noroeste 55 Noroeste -- -- -- 100
2018-04-16 05:00:00 -0.8 12 Noroeste 32 Noroeste -- -- -- 100
2018-04-16 04:00:00 -0.9 12 Noroeste 29 Noroeste -- -- -- 100
2018-04-16 03:00:00 -1.1 8 Sur 30 Sur -- -- -- 100
2018-04-16 02:00:00 -0.2 11 Oeste 39 Noroeste -- -- -- 100
2018-04-16 01:00:00 0.6 13 Norte 39 Norte -- -- -- 100
2018-04-16 00:00:00 1 10 Este 37 Noroeste -- -- -- 99
2018-04-15 23:00:00 4.2 10 Noroeste 27 Oeste -- -- -- 94
2018-04-15 22:00:00 3.1 13 Sudoeste 38 Noroeste -- -- -- 91
2018-04-15 21:00:00 4.4 15 Sur 31 Sudoeste -- -- -- 94
2018-04-15 20:00:00 5.4 9 Sudeste 32 Sur -- -- -- 91
2018-04-15 19:00:00 5.8 9 Sur 46 Sudoeste -- -- -- 86
2018-04-15 18:00:00 5.8 17 Sur 52 Sur -- -- -- 86
2018-04-15 17:00:00 6.4 18 Sur 44 Sur -- -- -- 84
2018-04-15 16:00:00 6.1 13 Sur 46 Noroeste -- -- -- 87
2018-04-15 15:00:00 6.6 11 Sudoeste 52 Sudoeste -- -- -- 81
2018-04-15 14:00:00 5.5 10 Noroeste 35 Oeste -- -- -- 95
2018-04-15 13:00:00 4.9 9 Sur 33 Noroeste -- -- -- 94
2018-04-15 12:00:00 4.5 8 Norte 33 Noroeste -- -- -- 98
2018-04-15 11:00:00 4.1 9 Norte 31 Norte -- -- -- 97
2018-04-15 10:00:00 3.8 8 Sur 28 Sudoeste -- -- -- 91
2018-04-15 09:00:00 2.9 11 Sur 29 Sudoeste -- -- -- 88
2018-04-15 08:00:00 2.5 9 Sudoeste 36 Sur -- -- -- 94
2018-04-15 07:00:00 2.9 13 Sur 35 Sur -- -- -- 88
2018-04-15 06:00:00 2.7 9 Este 35 Sudoeste -- -- -- 97
2018-04-15 05:00:00 2.8 12 Sudeste 42 Sur -- -- -- 95
2018-04-15 04:00:00 2.8 12 Sudeste 34 Sur -- -- -- 94
2018-04-15 03:00:00 3.4 10 Sudeste 36 Sur -- -- -- 82
2018-04-15 02:00:00 3.4 11 Sur 26 Sudeste -- -- -- 76
2018-04-15 01:00:00 3.4 5 Este 26 Sudeste -- -- -- 72
2018-04-15 00:00:00 3 5 Sudeste 20 Sudeste -- -- -- 71
2018-04-14 23:00:00 3.5 13 Sur 31 Sur -- -- -- 69
2018-04-14 22:00:00 3.1 13 Sur 25 Sur -- -- -- 78
2018-04-14 21:00:00 3.4 6 Sudeste 15 Noroeste -- -- -- 77
2018-04-14 20:00:00 3.9 5 Sur 10 Oeste -- -- -- 78
2018-04-14 19:00:00 5.3 2 Sudoeste 11 Oeste -- -- -- 68
2018-04-14 18:00:00 4.5 6 Sur 12 Sur -- -- -- 71
2018-04-14 17:00:00 5 6 Sur 11 Sudeste -- -- -- 70
2018-04-14 16:00:00 7.2 8 Sur 10 Sur -- -- -- 59
2018-04-14 15:00:00 7.5 6 Sur 12 Sur -- -- -- 61
2018-04-14 14:00:00 8.2 5 Oeste 14 Noroeste -- -- -- 62
2018-04-14 13:00:00 6 3 Sudeste 12 Norte -- -- -- 71
2018-04-14 12:00:00 1.9 8 Norte 12 Nordeste -- -- -- 86
2018-04-14 11:00:00 2 6 Norte 13 Nordeste -- -- -- 85
2018-04-14 10:00:00 0.6 3 Norte 13 Norte -- -- -- 100
2018-04-14 09:00:00 0.1 6 Norte 14 Nordeste -- -- -- 100
2018-04-14 08:00:00 0.1 8 Norte 17 Noroeste -- -- -- 100
2018-04-14 07:00:00 0.2 9 Noroeste 18 Norte -- -- -- 100
2018-04-14 06:00:00 0.3 6 Oeste 13 Noroeste -- -- -- 99
2018-04-14 05:00:00 0.1 9 Sudoeste 13 Sudoeste -- -- -- 96
2018-04-14 04:00:00 0.2 5 Oeste 11 Sudoeste -- -- -- 90
2018-04-14 03:00:00 0.2 8 Sudoeste 16 Sur -- -- -- 96
2018-04-14 02:00:00 0 8 Sur 14 Sudeste -- -- -- 99
2018-04-14 01:00:00 -0.1 9 Sur 13 Oeste -- -- -- 98
2018-04-14 00:00:00 0.3 6 Sudoeste 22 Sudoeste -- -- -- 88
2018-04-13 23:00:00 0.4 6 Oeste 16 Sur -- -- -- 95
2018-04-13 22:00:00 0.7 3 Nordeste 18 Sudoeste -- -- -- 91
2018-04-13 21:00:00 0.7 11 Sur 19 Sudoeste -- -- -- 90
2018-04-13 20:00:00 1 4 Noroeste 23 Sur -- -- -- 88
2018-04-13 19:00:00 2.2 10 Sur 25 Sur -- -- -- 87
2018-04-13 18:00:00 1.4 14 Sur 28 Sur -- -- -- 86
2018-04-13 17:00:00 2.7 12 Sur 26 Sur -- -- -- 81
2018-04-13 16:00:00 2.9 17 Sur 26 Sur -- -- -- 80
2018-04-13 15:00:00 3.4 12 Sur 21 Sur -- -- -- 78
2018-04-13 14:00:00 3.9 6 Sudoeste 16 Sudoeste -- -- -- 78
2018-04-13 13:00:00 6.8 4 Oeste 9 Oeste -- -- -- 74
2018-04-13 12:00:00 2.5 5 Norte 19 Sudoeste -- -- -- 87
2018-04-13 11:00:00 1.9 6 Sur 17 Sudoeste -- -- -- 83
2018-04-13 10:00:00 0 5 Sudoeste 19 Noroeste -- -- -- 96
2018-04-13 09:00:00 -1 4 Oeste 22 Noroeste -- -- -- 99
2018-04-13 08:00:00 -1.9 3 Sudoeste 18 Oeste -- -- -- 100
2018-04-13 07:00:00 -1.9 6 Sudoeste 23 Sudoeste -- -- -- 100
2018-04-13 06:00:00 -1.9 7 Nordeste 26 Noroeste -- -- -- 100
2018-04-13 05:00:00 -1.5 6 Sudoeste 14 Sur -- -- -- 100
2018-04-13 04:00:00 -1.1 4 Norte 7 Noroeste -- -- -- 100
2018-04-13 03:00:00 -1 3 Norte 20 Norte -- -- -- 100
2018-04-13 02:00:00 -1 14 Norte 39 Norte -- -- -- 100
2018-04-13 01:00:00 -0.6 19 Norte 39 Nordeste -- -- -- 98
2018-04-13 00:00:00 -0.3 21 Norte 51 Este -- -- -- 96
2018-04-12 23:00:00 -0.2 24 Norte 63 Sudeste -- -- -- 97
2018-04-12 22:00:00 0 24 Sur 90 Sudeste -- -- -- 97
2018-04-12 21:00:00 -0.1 33 Sur 74 Sudeste -- -- -- 98
2018-04-12 20:00:00 0 26 Sur 79 Sudeste -- -- -- 97
2018-04-12 19:00:00 0.5 26 Sudeste 71 Sudoeste -- -- -- 96
2018-04-12 18:00:00 0.9 33 Sur 62 Sudeste -- -- -- 88
2018-04-12 17:00:00 0.7 32 Sur 67 Sudeste -- -- -- 90
2018-04-12 16:00:00 0.9 18 Sur 46 Sudeste -- -- -- 89
2018-04-12 15:00:00 1.5 24 Sur 58 Sur -- -- -- 84
2018-04-12 14:00:00 0.9 41 Sur 54 Sur -- -- -- 93
2018-04-12 13:00:00 0.4 7 Norte 14 Sudoeste -- -- -- 100
2018-04-12 12:00:00 -0.1 11 Oeste 25 Noroeste -- -- -- 100
2018-04-12 11:00:00 -0.5 6 Sudoeste 24 Oeste -- -- -- 100
2018-04-12 10:00:00 -1.3 11 Oeste 31 Sudeste -- -- -- 100
2018-04-12 09:00:00 -1.7 12 Oeste 32 Oeste -- -- -- 100
2018-04-12 08:00:00 -1.7 7 Nordeste 30 Oeste -- -- -- 100
2018-04-12 07:00:00 -1.7 8 Este 35 Norte -- -- -- 100
2018-04-12 06:00:00 -1.7 17 Noroeste 36 Noroeste -- -- -- 100
2018-04-12 05:00:00 -1.5 12 Noroeste 33 Norte -- -- -- 100
2018-04-12 04:00:00 -1.3 18 Noroeste 37 Noroeste -- -- -- --
2018-04-12 03:00:00 -1.1 15 Noroeste 47 Norte -- -- -- --
2018-04-12 02:00:00 -0.9 13 Norte 56 Oeste -- -- -- --
2018-04-12 01:00:00 -0.7 10 Norte 53 Nordeste -- -- -- --
2018-04-12 00:00:00 -0.4 16 Nordeste 47 Norte -- -- -- 100
2018-04-11 23:00:00 -0.3 19 Norte 47 Oeste -- -- -- 100
2018-04-11 22:00:00 -0.2 13 Nordeste 51 Norte -- -- -- 100
2018-04-11 21:00:00 -0.4 11 Norte 49 Nordeste -- -- -- 100
2018-04-11 20:00:00 -0.6 22 Norte 48 Norte -- -- -- 100
2018-04-11 19:00:00 -1 21 Norte 81 Nordeste -- -- -- 100
2018-04-11 18:00:00 -0.9 30 Norte 72 Norte -- -- -- 100
2018-04-11 17:00:00 -1.3 15 Norte 44 Noroeste -- -- -- 100
2018-04-11 16:00:00 -1.6 13 Norte 49 Oeste -- -- -- 100
2018-04-11 15:00:00 -2.2 13 Norte 46 Nordeste -- -- -- 99
2018-04-11 14:00:00 -3 13 Norte 48 Noroeste -- -- -- 99
2018-04-11 13:00:00 -3.8 18 Noroeste 46 Noroeste -- -- -- 99
2018-04-11 12:00:00 -4.3 15 Noroeste 50 Noroeste -- -- -- 98
2018-04-11 11:00:00 -4.6 18 Noroeste 46 Noroeste -- -- -- 98
2018-04-11 10:00:00 -- -- -- -- -- -- -- -- --
2018-04-11 09:00:00 -- -- -- -- -- -- -- -- --
2018-04-11 08:00:00 -- -- -- -- -- -- -- -- --
2018-04-11 07:00:00 -- -- -- -- -- -- -- -- --
2018-04-11 06:00:00 -- -- -- -- -- -- -- -- --
2018-04-11 05:00:00 -- -- -- -- -- -- -- -- --
2018-04-11 04:00:00 -- -- -- -- -- -- -- -- --
2018-04-11 03:00:00 -- -- -- -- -- -- -- -- --
2018-04-11 02:00:00 -- -- -- -- -- -- -- -- --
2018-04-11 01:00:00 -- -- -- -- -- -- -- -- --
2018-04-11 00:00:00 -- -- -- -- -- -- -- -- --
2018-04-10 23:00:00 -- -- -- -- -- -- -- -- --
2018-04-10 22:00:00 -- -- -- -- -- -- -- -- --
2018-04-10 21:00:00 -- -- -- -- -- -- -- -- --
2018-04-10 20:00:00 -- -- -- -- -- -- -- -- --
2018-04-10 19:00:00 -- -- -- -- -- -- -- -- --
2018-04-10 18:00:00 -- -- -- -- -- -- -- -- --
2018-04-10 17:00:00 -- -- -- -- -- -- -- -- --
2018-04-10 16:00:00 -- -- -- -- -- -- -- -- --
2018-04-10 15:00:00 -- -- -- -- -- -- -- -- --
2018-04-10 14:00:00 -- -- -- -- -- -- -- -- --
2018-04-10 13:00:00 -- -- -- -- -- -- -- -- --
2018-04-10 12:00:00 -- -- -- -- -- -- -- -- --
2018-04-10 11:00:00 -- -- -- -- -- -- -- -- --
2018-04-10 10:00:00 -- -- -- -- -- -- -- -- --
2018-04-10 09:00:00 -- -- -- -- -- -- -- -- --
2018-04-10 08:00:00 -- -- -- -- -- -- -- -- --
2018-04-10 07:00:00 -- -- -- -- -- -- -- -- --
2018-04-10 06:00:00 -- -- -- -- -- -- -- -- --
2018-04-10 05:00:00 -- -- -- -- -- -- -- -- --
2018-04-10 04:00:00 -- -- -- -- -- -- -- -- --
2018-04-10 03:00:00 -- -- -- -- -- -- -- -- --
2018-04-10 02:00:00 -- -- -- -- -- -- -- -- --
2018-04-10 01:00:00 -- -- -- -- -- -- -- -- --
2018-04-10 00:00:00 -- -- -- -- -- -- -- -- --
2018-04-09 23:00:00 -- -- -- -- -- -- -- -- --
2018-04-09 22:00:00 -- -- -- -- -- -- -- -- --
2018-04-09 21:00:00 -- -- -- -- -- -- -- -- --
2018-04-09 20:00:00 -- -- -- -- -- -- -- -- --
2018-04-09 19:00:00 -- -- -- -- -- -- -- -- --
2018-04-09 18:00:00 -- -- -- -- -- -- -- -- --
2018-04-09 17:00:00 -- -- -- -- -- -- -- -- --
2018-04-09 16:00:00 -- -- -- -- -- -- -- -- --
2018-04-09 15:00:00 -- -- -- -- -- -- -- -- --
2018-04-09 14:00:00 -- -- -- -- -- -- -- -- --
2018-04-09 13:00:00 -- -- -- -- -- -- -- -- --
2018-04-09 12:00:00 -- -- -- -- -- -- -- -- --
2018-04-09 11:00:00 -- -- -- -- -- -- -- -- --
2018-04-09 10:00:00 -- -- -- -- -- -- -- -- --
2018-04-09 09:00:00 -- -- -- -- -- -- -- -- --
2018-04-09 08:00:00 -3.7 30 Sur 45 Sudeste -- -- -- 98
2018-04-09 07:00:00 -3 26 Sur 57 Sudoeste -- -- -- 99
2018-04-09 06:00:00 -2.6 32 Sudoeste 72 Sudoeste -- -- -- 98
2018-04-09 05:00:00 -2.6 40 Sur 68 Sudoeste -- -- -- 97
2018-04-09 04:00:00 -0.4 13 Nordeste 63 Este -- -- -- 96
2018-04-09 03:00:00 0 15 Noroeste 59 Sur -- -- -- 95
2018-04-09 02:00:00 0.4 24 Sudoeste 62 Sudoeste -- -- -- 94
2018-04-09 01:00:00 0.8 21 Sudoeste 40 Sudoeste -- -- -- 90
2018-04-09 00:00:00 0.3 9 Norte 31 Sur -- -- -- 98
2018-04-08 23:00:00 1.3 24 Sur 32 Sur -- -- -- 88
2018-04-08 22:00:00 1 19 Sur 31 Sur -- -- -- 91
2018-04-08 21:00:00 1.1 5 Sudeste 23 Sur -- -- -- 90
2018-04-08 20:00:00 1.4 8 Sur 26 Oeste -- -- -- 94
2018-04-08 19:00:00 1.4 10 Sudeste 35 Oeste -- -- -- 96
2018-04-08 18:00:00 1.3 6 Sudeste 33 Oeste -- -- -- 97
2018-04-08 17:00:00 0.3 13 Oeste 38 Noroeste -- -- -- 100
2018-04-08 16:00:00 0.2 8 Norte 46 Noroeste -- -- -- 100
2018-04-08 15:00:00 -0.2 12 Nordeste 43 Norte -- -- -- 100
2018-04-08 14:00:00 -0.1 9 Oeste 34 Noroeste -- -- -- 100
2018-04-08 13:00:00 -0.3 10 Nordeste 35 Noroeste -- -- -- 100
2018-04-08 12:00:00 -0.5 13 Noroeste 35 Noroeste -- -- -- --
2018-04-08 11:00:00 -0.9 17 Norte 43 Noroeste -- -- -- --
2018-04-08 10:00:00 -0.7 13 Norte 39 Norte -- -- -- --
2018-04-08 09:00:00 -0.7 18 Noroeste 41 Noroeste -- -- -- --
2018-04-08 08:00:00 -0.7 12 Norte 46 Noroeste -- -- -- --
2018-04-08 07:00:00 -0.7 15 Noroeste 39 Noroeste -- -- -- --
2018-04-08 06:00:00 -0.6 15 Norte 44 Noroeste -- -- -- 100
2018-04-08 05:00:00 -0.3 13 Norte 31 Noroeste -- -- -- 100
2018-04-08 04:00:00 -0.4 9 Norte 31 Norte -- -- -- 100
2018-04-08 03:00:00 -0.2 7 Noroeste 24 Noroeste -- -- -- 100
2018-04-08 02:00:00 -0.2 7 Este 22 Nordeste -- -- -- 100
2018-04-08 01:00:00 -0.4 6 Noroeste 23 Noroeste -- -- -- 96
2018-04-08 00:00:00 0 7 Noroeste 20 Sudeste -- -- -- 85
2018-04-07 23:00:00 0 5 Sudeste 15 Sur -- -- -- 82
2018-04-07 22:00:00 -0.1 5 Sudoeste 17 Sudoeste -- -- -- 80
2018-04-07 21:00:00 -0.3 6 Sur 12 Sudoeste -- -- -- 89
2018-04-07 20:00:00 -0.1 5 Sur 10 Oeste -- -- -- 91
2018-04-07 19:00:00 0.3 3 Oeste 10 Sudoeste -- -- -- 93
2018-04-07 18:00:00 0.1 4 Sudoeste 11 Oeste -- -- -- 94
2018-04-07 17:00:00 0.2 4 Sudoeste 10 Sudoeste -- -- -- 95
2018-04-07 16:00:00 -0.4 5 Oeste 11 Noroeste -- -- -- 99
2018-04-07 15:00:00 -0.4 6 Noroeste 12 Oeste -- -- -- 100
2018-04-07 14:00:00 -0.1 5 Nordeste 21 Norte -- -- -- 100
2018-04-07 13:00:00 1.2 10 Norte 24 Norte -- -- -- 100
2018-04-07 12:00:00 0.4 12 Norte 53 Sudoeste -- -- -- 98
2018-04-07 11:00:00 1.8 18 Norte 42 Nordeste -- -- -- 98
2018-04-07 10:00:00 1.1 -- -- -- -- -- -- -- 98
2018-04-07 09:00:00 -- -- -- -- -- -- -- -- --
2018-04-07 08:00:00 2.8 14 Noroeste 41 Nordeste -- -- -- 93
2018-04-07 07:00:00 3 20 Norte 50 Oeste -- -- -- 90
2018-04-07 06:00:00 3.5 22 Oeste 64 Oeste -- -- -- 92
2018-04-07 05:00:00 3.8 17 Noroeste 55 Sudoeste -- -- -- 90
2018-04-07 04:00:00 3.7 18 Noroeste 53 Oeste -- -- -- 94
2018-04-07 03:00:00 4.1 18 Noroeste 57 Sudoeste -- -- -- 92
2018-04-07 02:00:00 4.7 19 Noroeste 63 Nordeste -- -- -- 95
2018-04-07 01:00:00 4.7 27 Norte 59 Oeste -- -- -- 93
2018-04-07 00:00:00 5.2 19 Noroeste 66 Oeste -- -- -- 87
2018-04-06 23:00:00 5.6 30 Norte 70 Sudoeste -- -- -- 92
2018-04-06 22:00:00 6.2 20 Norte 57 Este -- -- -- 90
2018-04-06 21:00:00 5.7 20 Norte 80 Este -- -- -- 89
2018-04-06 20:00:00 5.7 26 Noroeste 72 Sudeste -- -- -- 89
2018-04-06 19:00:00 6 19 Norte 74 Sudeste -- -- -- 85
2018-04-06 18:00:00 6.3 19 Noroeste 82 Oeste -- -- -- 80
2018-04-06 17:00:00 6.1 23 Norte 100 Oeste -- -- -- 80
2018-04-06 16:00:00 8.2 17 Este 87 Este -- -- -- 64
2018-04-06 15:00:00 8 24 Oeste 86 Oeste -- -- -- 64
2018-04-06 14:00:00 8.1 25 Noroeste 84 Sudoeste -- -- -- 65
2018-04-06 13:00:00 7.9 21 Sudoeste 69 Sudoeste -- -- -- 58
2018-04-06 12:00:00 7.5 24 Sur 67 Sudoeste -- -- -- 55
2018-04-06 11:00:00 7.8 19 Sudoeste 65 Oeste -- -- -- 53
2018-04-06 10:00:00 -- -- -- -- -- -- -- -- --
2018-04-06 09:00:00 -- -- -- -- -- -- -- -- --
2018-04-06 08:00:00 7.2 32 Sur 71 Sudoeste -- -- -- 52
2018-04-06 07:00:00 6.9 29 Sur 77 Sudeste -- -- -- 54
2018-04-06 06:00:00 6.2 30 Sur 70 Sudoeste -- -- -- 58
2018-04-06 05:00:00 5.9 47 Sur 99 Sudeste -- -- -- 62
2018-04-06 04:00:00 5.6 34 Sur 78 Sudoeste -- -- -- 65
2018-04-06 03:00:00 6.2 33 Sur 69 Sur -- -- -- 61
2018-04-06 02:00:00 6.3 41 Sur 75 Sur -- -- -- 60
2018-04-06 01:00:00 6.3 39 Sur 71 Sur -- -- -- 54
2018-04-06 00:00:00 6.2 40 Sur 79 Sudeste -- -- -- 57
2018-04-05 23:00:00 6.6 45 Sur 88 Sudeste -- -- -- 50
2018-04-05 22:00:00 5.6 45 Sur 87 Sudeste -- -- -- 53
2018-04-05 21:00:00 5.5 51 Sudeste 77 Sudeste -- -- -- 51
2018-04-05 20:00:00 5.8 45 Sur 62 Sudeste -- -- -- 62
2018-04-05 19:00:00 7.7 38 Sur 57 Sur -- -- -- 46
2018-04-05 18:00:00 7.3 33 Sur 42 Sur -- -- -- 63
2018-04-05 17:00:00 7.7 32 Sur 46 Sur -- -- -- 49
2018-04-05 16:00:00 9.2 26 Sur 38 Sur -- -- -- 31
2018-04-05 15:00:00 9.2 21 Sur 32 Sur -- -- -- 25
2018-04-05 14:00:00 11.1 4 Norte 37 Sur -- -- -- 42
2018-04-05 13:00:00 8.9 11 Sur 42 Sur -- -- -- 31
2018-04-05 12:00:00 6.5 35 Sur 49 Sur -- -- -- 31
2018-04-05 11:00:00 5.2 41 Sur 54 Sur -- -- -- 32
2018-04-05 10:00:00 4.5 30 Sur 47 Sur -- -- -- 37
2018-04-05 09:00:00 2.6 31 Sur 45 Sur -- -- -- 48
2018-04-05 08:00:00 0.4 4 Noroeste 14 Sudoeste -- -- -- 66
2018-04-05 07:00:00 0.4 5 Norte 23 Sudoeste -- -- -- 78
2018-04-05 06:00:00 -1.2 9 Sudeste 19 Oeste -- -- -- 98
2018-04-05 05:00:00 -0.8 12 Sudoeste 24 Sudoeste -- -- -- --
2018-04-05 04:00:00 -0.5 8 Sur 30 Oeste -- -- -- --
2018-04-05 03:00:00 -0.3 10 Oeste 33 Oeste -- -- -- 100
2018-04-05 02:00:00 0.2 10 Norte 37 Nordeste -- -- -- 100
2018-04-05 01:00:00 0.5 14 Este 41 Nordeste -- -- -- 100
2018-04-05 00:00:00 1.2 14 Norte 61 Norte -- -- -- 100
2018-04-04 23:00:00 1.5 17 Norte 50 Oeste -- -- -- 100
2018-04-04 22:00:00 1.6 15 Sudeste 43 Sudeste -- -- -- 99
2018-04-04 21:00:00 1.6 19 Norte 52 Oeste -- -- -- 99
2018-04-04 20:00:00 2.4 16 Norte 52 Norte -- -- -- 95
2018-04-04 19:00:00 3.1 19 Sudeste 62 Noroeste -- -- -- 85
2018-04-04 18:00:00 3.3 12 Oeste 47 Sur -- -- -- 92
2018-04-04 17:00:00 2.9 15 Norte 51 Noroeste -- -- -- 89
2018-04-04 16:00:00 2 18 Norte 50 Noroeste -- -- -- 94
2018-04-04 15:00:00 2.8 17 Noroeste 50 Oeste -- -- -- 83
2018-04-04 14:00:00 2.2 15 Oeste 69 Oeste -- -- -- 85
2018-04-04 13:00:00 0.7 15 Este 50 Noroeste -- -- -- 94
2018-04-04 12:00:00 0.8 19 Este 66 Sur -- -- -- 90
2018-04-04 11:00:00 0.8 16 Este 63 Sur -- -- -- 89
2018-04-04 10:00:00 0.6 21 Sur 68 Sudoeste -- -- -- 86
2018-04-04 09:00:00 -0.1 15 Este 54 Sur -- -- -- 90
2018-04-04 08:00:00 0 22 Sur 59 Sur -- -- -- 87
2018-04-04 07:00:00 -0.1 18 Sur 65 Sur -- -- -- 87
2018-04-04 06:00:00 0.1 18 Sudoeste 55 Sudoeste -- -- -- 85
2018-04-04 05:00:00 0.1 17 Sudeste 74 Sur -- -- -- 80
2018-04-04 04:00:00 0.2 15 Sur 63 Sur -- -- -- 82
2018-04-04 03:00:00 0.6 22 Sur 68 Sur -- -- -- 81
2018-04-04 02:00:00 1 25 Sur 69 Sur -- -- -- 80
2018-04-04 01:00:00 1.4 26 Sur 59 Sur -- -- -- 87
2018-04-04 00:00:00 1.3 35 Sur 67 Sur -- -- -- 84
2018-04-03 23:00:00 1.7 31 Sudoeste 67 Sur -- -- -- 89
2018-04-03 22:00:00 2 26 Sudoeste 67 Sur -- -- -- 92
2018-04-03 21:00:00 2.1 42 Sur 78 Sur -- -- -- 92
2018-04-03 20:00:00 2.2 33 Sudoeste 82 Oeste -- -- -- 93
2018-04-03 19:00:00 2.1 35 Sudoeste 94 Sudoeste -- -- -- 95
2018-04-03 18:00:00 2.5 50 Sudoeste 88 Sudoeste -- -- -- 92
2018-04-03 17:00:00 3.9 36 Sudoeste 82 Sudoeste -- -- -- 76
2018-04-03 16:00:00 3.9 46 Sudoeste 91 Sur -- -- -- 77
2018-04-03 15:00:00 3.1 39 Sudoeste 83 Sur -- -- -- 85
2018-04-03 14:00:00 2.3 38 Sudoeste 83 Sudoeste -- -- -- 92
2018-04-03 13:00:00 2.6 35 Sudoeste 67 Sudoeste -- -- -- 88
2018-04-03 12:00:00 3.5 41 Sur 87 Sur -- -- -- 75
2018-04-03 11:00:00 1.6 27 Sudoeste 73 Sudoeste -- -- -- 95
2018-04-03 10:00:00 1.1 36 Sur 75 Sur -- -- -- 98
2018-04-03 09:00:00 1 49 Sur 77 Sur -- -- -- 98
2018-04-03 08:00:00 1.1 42 Sur 70 Sudoeste -- -- -- 97
2018-04-03 07:00:00 1.6 33 Sur 62 Sudoeste -- -- -- 93
2018-04-03 06:00:00 2.2 43 Sur 66 Sudoeste -- -- -- 87
2018-04-03 05:00:00 2.8 25 Sudoeste 58 Sudoeste -- -- -- 83
2018-04-03 04:00:00 2.9 30 Sudoeste 56 Oeste -- -- -- 89
2018-04-03 03:00:00 3.4 24 Sudoeste 47 Sudoeste -- -- -- 90
2018-04-03 02:00:00 3.5 22 Sudoeste 46 Sudoeste -- -- -- 91
2018-04-03 01:00:00 3.4 19 Sur 51 Sur -- -- -- 91
2018-04-03 00:00:00 3.2 28 Sur 67 Sudoeste -- -- -- 91
2018-04-02 23:00:00 3.5 34 Sur 60 Sur -- -- -- 89
2018-04-02 22:00:00 4.9 24 Sur 61 Sudoeste -- -- -- 76
2018-04-02 21:00:00 5.4 26 Sur 64 Sudoeste -- -- -- 71
2018-04-02 20:00:00 5.6 31 Sur 65 Sur -- -- -- 70
2018-04-02 19:00:00 6.1 38 Sudoeste 64 Sudoeste -- -- -- 67
2018-04-02 18:00:00 6.6 32 Sur 66 Sudoeste -- -- -- 66
2018-04-02 17:00:00 6.5 28 Sudoeste 71 Sur -- -- -- 65
2018-04-02 16:00:00 5.8 31 Sur 65 Sudeste -- -- -- 67
2018-04-02 15:00:00 5.2 36 Sur 80 Sudeste -- -- -- 68
2018-04-02 14:00:00 4.6 43 Sur 69 Sur -- -- -- 67
2018-04-02 13:00:00 4.3 39 Sur 69 Sudeste -- -- -- 69
2018-04-02 12:00:00 3.9 47 Sur 70 Sudeste -- -- -- 66
2018-04-02 11:00:00 4.3 44 Sur 66 Sudeste -- -- -- 62
2018-04-02 10:00:00 4.4 42 Sur 67 Sudeste -- -- -- 60
2018-04-02 09:00:00 5.3 40 Sur 60 Sur -- -- -- 63
2018-04-02 08:00:00 5 42 Sur 66 Sudeste -- -- -- 64
2018-04-02 07:00:00 4.2 37 Sur 78 Sur -- -- -- 68
2018-04-02 06:00:00 4.9 37 Sur 65 Sudoeste -- -- -- 64
2018-04-02 05:00:00 4.6 39 Sur 80 Sudeste -- -- -- 65
2018-04-02 04:00:00 4.3 46 Sur 88 Sudeste -- -- -- 66
2018-04-02 03:00:00 4.7 42 Sur 83 Sudeste -- -- -- 65
2018-04-02 02:00:00 4.7 44 Sur 86 Sudeste -- -- -- 65
2018-04-02 01:00:00 4.9 39 Sur 94 Sur -- -- -- 64
2018-04-02 00:00:00 5.3 45 Sur 81 Sudeste -- -- -- 65
2018-04-01 23:00:00 5.6 31 Sur 68 Sudoeste -- -- -- 65
2018-04-01 22:00:00 5.4 28 Sur 61 Sudoeste -- -- -- 65
2018-04-01 21:00:00 5.2 31 Sur 64 Sudeste -- -- -- 67
2018-04-01 20:00:00 5.2 34 Sur 60 Sur -- -- -- 67
2018-04-01 19:00:00 6 28 Sur 77 Sudeste -- -- -- 63
2018-04-01 18:00:00 6.5 28 Sur 61 Sudoeste -- -- -- 61
2018-04-01 17:00:00 6.5 33 Sur 80 Sudeste -- -- -- 64
2018-04-01 16:00:00 5.9 36 Sur 60 Sur -- -- -- 69
2018-04-01 15:00:00 5.9 39 Sur 60 Sudeste -- -- -- 66
2018-04-01 14:00:00 5 33 Sur 44 Sur -- -- -- 70
2018-04-01 13:00:00 5.4 23 Sur 41 Sur -- -- -- 72
2018-04-01 12:00:00 5 28 Sur 39 Sur -- -- -- 74
2018-04-01 11:00:00 5.3 9 Sudoeste 19 Sur -- -- -- 74
2018-04-01 10:00:00 2.9 10 Sur 16 Sudoeste -- -- -- 82
2018-04-01 09:00:00 2 14 Sudoeste 26 Sur -- -- -- 91
2018-04-01 08:00:00 0.8 10 Sur 30 Sudoeste -- -- -- 93
2018-04-01 07:00:00 -0.9 15 Sudoeste 34 Sudoeste -- -- -- 92
2018-04-01 06:00:00 -0.9 16 Sudoeste 37 Sudoeste -- -- -- 92
2018-04-01 05:00:00 -1 15 Sur 34 Sudoeste -- -- -- 95
2018-04-01 04:00:00 -0.9 8 Nordeste 35 Sudoeste -- -- -- 95
2018-04-01 03:00:00 -1.2 10 Este 27 Norte -- -- -- 94
2018-04-01 02:00:00 -1.6 10 Sur 39 Sudeste -- -- -- 91
2018-04-01 01:00:00 -1.8 8 Norte 31 Oeste -- -- -- 94
2018-04-01 00:00:00 -2.1 8 Norte 29 Oeste -- -- -- 92
2018-03-31 23:00:00 -2.2 9 Oeste 29 Sudoeste -- -- -- 94
2018-03-31 22:00:00 -2.3 13 Este 35 Nordeste -- -- -- 94
2018-03-31 21:00:00 -1.9 11 Nordeste 49 Noroeste -- -- -- 96
2018-03-31 20:00:00 -1.7 13 Norte 45 Noroeste -- -- -- 95
2018-03-31 19:00:00 -1.5 18 Noroeste 47 Norte -- -- -- 97
2018-03-31 18:00:00 -1.3 15 Norte 53 Noroeste -- -- -- 99
2018-03-31 17:00:00 -1.3 18 Nordeste 54 Oeste -- -- -- 100
2018-03-31 16:00:00 -1.9 13 Noroeste 41 Nordeste -- -- -- 100
2018-03-31 15:00:00 -2.1 14 Noroeste 57 Oeste -- -- -- 100
2018-03-31 14:00:00 -2.8 11 Nordeste 46 Oeste -- -- -- 99
2018-03-31 13:00:00 -3.4 20 Noroeste 51 Noroeste -- -- -- 99
2018-03-31 12:00:00 -3.7 14 Norte 60 Noroeste -- -- -- 99
2018-03-31 11:00:00 -4 14 Noroeste 54 Norte -- -- -- 98
2018-03-31 10:00:00 -4.3 17 Norte 56 Noroeste -- -- -- 98
2018-03-31 09:00:00 -4.3 20 Noroeste 57 Noroeste -- -- -- 98
2018-03-31 08:00:00 -4.3 19 Noroeste 82 Norte -- -- -- 98
2018-03-31 07:00:00 -4.4 25 Norte 78 Norte -- -- -- 98
2018-03-31 06:00:00 -4.4 25 Norte 65 Noroeste -- -- -- 98
2018-03-31 05:00:00 -4.5 22 Nordeste 70 Oeste -- -- -- 98
2018-03-31 04:00:00 -4.4 19 Norte 78 Sudoeste -- -- -- 98
2018-03-31 03:00:00 -4.6 23 Norte 92 Oeste -- -- -- 98
2018-03-31 02:00:00 -4.5 20 Norte 82 Noroeste -- -- -- 98
2018-03-31 01:00:00 -4.4 21 Norte 72 Norte -- -- -- 98
2018-03-31 00:00:00 -4.2 21 Nordeste 86 Sudoeste -- -- -- 98
2018-03-30 23:00:00 -3 30 Sudeste 98 Sudoeste -- -- -- 96
2018-03-30 22:00:00 -2.9 32 Sur 81 Sudoeste -- -- -- 95
2018-03-30 21:00:00 -2.7 21 Sudoeste 47 Sudoeste -- -- -- 93
2018-03-30 20:00:00 -1.4 18 Sudoeste 45 Sudoeste -- -- -- 69
2018-03-30 19:00:00 -0.6 17 Sur 48 Noroeste -- -- -- 61
2018-03-30 18:00:00 -0.2 16 Sur 49 Sudoeste -- -- -- 55
2018-03-30 17:00:00 -0.4 18 Sudoeste 50 Sur -- -- -- 50
2018-03-30 16:00:00 0 14 Noroeste 38 Sur -- -- -- 58
2018-03-30 15:00:00 -0.1 11 Norte 29 Norte -- -- -- 65
2018-03-30 14:00:00 -1.6 8 Sudeste 25 Noroeste -- -- -- 81
2018-03-30 13:00:00 -0.8 10 Sur 22 Sur -- -- -- 88
2018-03-30 12:00:00 -3.8 11 Sudoeste 41 Sur -- -- -- 97
2018-03-30 11:00:00 -5.4 13 Sur 40 Norte -- -- -- 97
2018-03-30 10:00:00 -5.8 15 Norte 46 Noroeste -- -- -- 97
2018-03-30 09:00:00 -5.9 15 Norte 53 Noroeste -- -- -- 97
2018-03-30 08:00:00 -5.7 14 Sudeste 57 Oeste -- -- -- 97
2018-03-30 07:00:00 -4.6 15 Norte 64 Noroeste -- -- -- 98
2018-03-30 06:00:00 -3.8 20 Noroeste 63 Oeste -- -- -- 98
2018-03-30 05:00:00 -2.2 26 Norte 82 Sudoeste -- -- -- 97
2018-03-30 04:00:00 -1.2 27 Sur 79 Sur -- -- -- 91
2018-03-30 03:00:00 -1.8 33 Sur 62 Sur -- -- -- 94
2018-03-30 02:00:00 -1.6 34 Sur 57 Sur -- -- -- 90
2018-03-30 01:00:00 -0.2 24 Sudoeste 64 Sudoeste -- -- -- 71
2018-03-30 00:00:00 0.7 33 Sur 69 Sudeste -- -- -- 56
2018-03-29 23:00:00 0.5 12 Sur 33 Sudoeste -- -- -- 74
2018-03-29 22:00:00 0.6 21 Sudoeste 38 Sudoeste -- -- -- 67
2018-03-29 21:00:00 0.5 8 Sur 31 Sudoeste -- -- -- 67
2018-03-29 20:00:00 1.5 8 Este 38 Noroeste -- -- -- 57
2018-03-29 19:00:00 2.8 10 Norte 49 Oeste -- -- -- 46
2018-03-29 18:00:00 3.5 16 Oeste 43 Oeste -- -- -- 45
2018-03-29 17:00:00 3.8 12 Noroeste 45 Oeste -- -- -- 50
2018-03-29 16:00:00 3.9 9 Sudeste 38 Noroeste -- -- -- 62
2018-03-29 15:00:00 3.1 9 Sur 29 Sudoeste -- -- -- 66
2018-03-29 14:00:00 1 9 Sudeste 39 Noroeste -- -- -- 85
2018-03-29 13:00:00 -0.2 13 Norte 45 Noroeste -- -- -- 88
2018-03-29 12:00:00 -0.9 16 Oeste 42 Sur -- -- -- 90
2018-03-29 11:00:00 -0.7 13 Noroeste 47 Noroeste -- -- -- 97
2018-03-29 10:00:00 -0.9 12 Oeste 43 Sur -- -- -- 99
2018-03-29 09:00:00 -1.5 13 Este 38 Oeste -- -- -- --
2018-03-29 08:00:00 -0.7 19 Sudoeste 48 Sur -- -- -- --
2018-03-29 07:00:00 -0.4 12 Este 37 Norte -- -- -- --
2018-03-29 06:00:00 0 11 Norte 45 Oeste -- -- -- --
2018-03-29 05:00:00 0.5 14 Noroeste 51 Noroeste -- -- -- 100
2018-03-29 04:00:00 1.1 15 Norte 44 Oeste -- -- -- 100
2018-03-29 03:00:00 1.6 13 Noroeste 53 Noroeste -- -- -- 100
2018-03-29 02:00:00 1.7 20 Noroeste 44 Noroeste -- -- -- 100
2018-03-29 01:00:00 2.1 9 Norte 30 Nordeste -- -- -- 100
2018-03-29 00:00:00 2.1 11 Nordeste 35 Noroeste -- -- -- 99
2018-03-28 23:00:00 2.4 11 Norte 39 Sur -- -- -- 99
2018-03-28 22:00:00 3.1 14 Sudeste 44 Sudoeste -- -- -- 94
2018-03-28 21:00:00 4 11 Noroeste 45 Noroeste -- -- -- 74
2018-03-28 20:00:00 5.2 13 Norte 41 Noroeste -- -- -- 68
2018-03-28 19:00:00 7 21 Noroeste 51 Oeste -- -- -- 56
2018-03-28 18:00:00 7.4 18 Norte 56 Noroeste -- -- -- 51
2018-03-28 17:00:00 8.6 14 Norte 50 Sudeste -- -- -- 46
2018-03-28 16:00:00 8 16 Noroeste 60 Noroeste -- -- -- 39
2018-03-28 15:00:00 8.4 17 Noroeste 47 Sur -- -- -- 31
2018-03-28 14:00:00 8.7 15 Oeste 44 Oeste -- -- -- 32
2018-03-28 13:00:00 8.1 12 Sur 41 Sur -- -- -- 33
2018-03-28 12:00:00 7.1 17 Sur 42 Sur -- -- -- 32
2018-03-28 11:00:00 6.3 9 Norte 35 Noroeste -- -- -- 35
2018-03-28 10:00:00 3.7 10 Nordeste 45 Noroeste -- -- -- 38
2018-03-28 09:00:00 3.9 12 Norte 41 Sur -- -- -- 35
2018-03-28 08:00:00 4 16 Noroeste 49 Oeste -- -- -- 41
2018-03-28 07:00:00 4 14 Noroeste 40 Noroeste -- -- -- 42
2018-03-28 06:00:00 4 9 Este 37 Sudeste -- -- -- 58
2018-03-28 05:00:00 4.3 10 Este 24 Sudeste -- -- -- 55
2018-03-28 04:00:00 4.5 5 Este 23 Noroeste -- -- -- 52
2018-03-28 03:00:00 4.4 13 Sur 31 Sudeste -- -- -- 62
2018-03-28 02:00:00 4.6 6 Sur 42 Sur -- -- -- 85
2018-03-28 01:00:00 5.5 13 Este 44 Norte -- -- -- 86
2018-03-28 00:00:00 5.7 14 Nordeste 42 Nordeste -- -- -- 86
2018-03-27 23:00:00 5.7 17 Este 39 Nordeste -- -- -- 84
2018-03-27 22:00:00 5.3 9 Sur 31 Norte -- -- -- 76
2018-03-27 21:00:00 5.5 8 Este 30 Norte -- -- -- 75
2018-03-27 20:00:00 5.9 9 Norte 28 Noroeste -- -- -- 78
2018-03-27 19:00:00 6.6 15 Noroeste 29 Noroeste -- -- -- 75
2018-03-27 18:00:00 6.2 9 Noroeste 38 Norte -- -- -- 80
2018-03-27 17:00:00 5.6 9 Noroeste 31 Noroeste -- -- -- 84
2018-03-27 16:00:00 5.4 5 Noroeste 23 Noroeste -- -- -- 88
2018-03-27 15:00:00 5.1 7 Oeste 21 Noroeste -- -- -- 91
2018-03-27 14:00:00 4.4 7 Sudoeste 21 Oeste -- -- -- 94
2018-03-27 13:00:00 3.6 9 Oeste 30 Sudoeste -- -- -- 99
2018-03-27 12:00:00 1.8 17 Sur 28 Sudoeste -- -- -- 100
2018-03-27 11:00:00 0.4 15 Sudoeste 28 Sur -- -- -- 100
2018-03-27 10:00:00 0.1 6 Sudoeste 26 Noroeste -- -- -- 100
2018-03-27 09:00:00 0 6 Oeste 26 Oeste -- -- -- --
2018-03-27 08:00:00 0 10 Oeste 32 Sudoeste -- -- -- --
2018-03-27 07:00:00 -0.1 8 Oeste 26 Noroeste -- -- -- --
2018-03-27 06:00:00 -0.1 9 Noroeste 33 Norte -- -- -- --
2018-03-27 05:00:00 -0.1 10 Oeste 30 Noroeste -- -- -- 100
2018-03-27 04:00:00 -0.1 9 Norte 26 Noroeste -- -- -- 100
2018-03-27 03:00:00 -0.2 6 Norte 25 Oeste -- -- -- 100
2018-03-27 02:00:00 -0.3 10 Noroeste 24 Noroeste -- -- -- 100
2018-03-27 01:00:00 -0.6 8 Oeste 37 Norte -- -- -- 100
2018-03-27 00:00:00 -1.1 14 Noroeste 39 Norte -- -- -- 100